Timeline UpdatesTrip UpdatesNews PostsPvt Posts♥♥Travel TipsAdmin PostsConv PostsFollowed PostsChat RequestsBlog PostsPNR Posts

Disclaimer
Search
 
 
Fri Dec 19, 2014 12:46:37 ISTHomeTrainsΣChainsAtlasPNRForumGalleryNewsFAQTripsMembersLoginFeedback
No Recent News for this Train
Other Trains in the News **new
Latest...
.
Sun Mar 09, 2014 (12:08PM)
⇐ Return Journey: Train# 12722

12721/Dakshin SF Express

Time-Table HAS CHANGED.
Sep 01 2014 (11:45PM)
Change Departure Station:
Change Arrival Station:
Post a Train Travel TipPost a Train Travel Tip **new
Post a Comment/Question/Picture/VideoPost a Comment/Question/Picture/Video
Pantry/Catering
✓ Pantry Car Avbl
✓ Catering Avbl
RSA - Rake Sharing
Rake/Coach Composition
From HYB to KZJ, 12721 Dakshin Exp; LOCO(LGD-WAP7)-SLRD-A2-B2-PC-S8-S9-S10-S11-S12-S13-S14-GS-GS-GS-GS-SLR; From KZJ to NZM, 12721 Dakshin Exp; LOCO(LGD-WAP7)-SLR-S4-S5-S6-B1-A1-SLRD-A2-B2-PC-S8-S9-S10-S11-S12-S13-S14-GS-GS-GS-GS-SLR
Loco
Loco In-Charge :- LGD WAP-7 / LGD WAP-4
News    PNR    Forum    Time-Table    Availability    Fare Chart    Map    Arr/Dep History    Trips    Gallery    ΣChains    X/O    Timeline    
Travel Time: 0h 20m    0 halts    Distance: 9 km    Avg Speed: 27 km/hr
Type: SuperFast
Zone: SCR/South Central
Departs @ 22:30 (Avg 2m late)
Platform# 4
SMTWTFS
Hyderabad Deccan Nampally/HYB 
Arrives @ 22:50 (Avg 11m late)
Platform# 1
SMTWTFS
Secunderabad Junction/SC 

0 halts. 6 intermediate Stations between Hyderabad Deccan Nampally and Secunderabad Junction

Show ALL intermediate Stations  Show Old Time-Table

#TrkCodeStation NameX/OArrivesAvgDepartsAvgHaltPFDay#KmSpeedElevZoneAddress
1/==/HYBHyderabad Deccan Nampally (6)»  -22:30+2410.028510mSCRHyderabad, Telangana
2/==/SCSecunderabad Junction (10)•X  22:50+1122:55+135m119.257539mSCRSecunderabad 500003, Telangana
3/==/BGBhongir (3)  23:30 23:44+2923:40 23:45+2910 1m1155.697455mSCRNalgonda Dist., Telangana
4/==/ZNJangaon (2)O  00:03 00:08+3200:05 00:10+312m2292.948380mSCRWarangal Dist., Telangana
5/==/KZJKazipet Junction (3)X  01:10+801:30+2420m12140.993292mSCRWarangal Dist., Telangana
6/==/JMKTJammikunta (2)X  01:53+4001:55+402m12176.495236mSCRKarimnagar Dist., Telangana
7/==/PDPLPeddapalli Junction (2)O  02:20+4502:22+442m12215.950228mSCRKarimnagar Dist., Telangana
8/==/RDMRamagundam (3)O  02:43+4002:45+392m12233.563170mSCRKarimnagar Dist. Ph : 08728 - 255237, Telangana
9/==/MCIManchiryal (3)X  02:58+4103:00+402m12247.266159mSCRAdilabad Dist., Telangana
10/==/BPABellampalli (3)X  03:18+4103:20+412m12267.161205mSCRTel:.08735 223298, Telangana
11/==/SKZRSirpur Kaghaznagar (3)X  03:58+1704:00+162m12305.552181mSCRAdilabad Dist., Telangana
12/==/BPQBalharshah Junction (5)X  05:20+1805:30+2010m--2375.343188mCRBallarpur. Ph : 07172 - 240341, Maharashtra
13/==/CDChandrapur Maharashtra (3)  05:49+2405:50+251m--2389.063194mCRChandrapur 442401, Maharashtra
14/==/BUXBhandak (5)  06:13+2406:14+251m--2413.363207mCRChandrapur, Maharashtra
15/==/WRRWarora (2)X  06:35+2406:36+241m--2435.478214mCRWarora, Maharashtra
16/==/HGTHinganghat (3)  07:06+2507:07+271m--2474.544228mCRHinganghat, Maharashtra
17/==/SEGMSewagram Junction (5)  07:52+1407:53+171m32507.676279mCRWardha, Maharashtra
18/==/SNISindi (2)  08:16+1708:17+181m12536.977258mCRWardha, Maharashtra
19/==/AJNIAjni (3)  08:51+1708:52+181m12580.88310mCRNagpur 440003, Maharashtra
20/==/NGPNagpur Junction (8)X  09:15+1109:25+1310m12583.870314mCRNagpur 440001, Maharashtra
21/==/KATLKatol (2)  10:17+1410:18+151m--2644.760421mCRKatol. District Nagpur, Maharashtra
22/==/NRKRNarkher Junction (4)X  10:43+1310:44+141m--2669.861411mCRDistrict Nagpur, Maharashtra
23/==/PARPandhurna (2)  11:02+1411:03+181m22688.261481mCRDistt: Chhindwara, Madhya Pradesh
24/==/MTYMultai (3)X  11:43+2111:45+212m12729.065762mCRMultai, Madhya Pradesh
25/==/AMLAAmla Junction (5)O  12:06+1812:08+192m--2751.872733mCRAmla Distt. Betul, Madhya Pradesh
26/==/BZUBetul (3)X  12:27+2212:29+232m--2774.753644mCRBetul, Madhya Pradesh
27/==/GDYAGhoradongri (3)X  13:10+2313:12+232m12810.645407mCRBetul, Madhya Pradesh
28/==/ETItarsi Junction (7)  14:45+714:55+1010m12881.060329mWCRItarsi 461111, Madhya Pradesh
29/==/HBDHoshangabad (2)O  15:14 15:13+1615:15+161 2m--2899.164308mWCRHoshangabad, Madhya Pradesh
30/==/HBJBhopal HabibGanj (5)X  16:19 16:18+3116:20+311 2m32966.515496mWCRHabibGanj, Madhya Pradesh
31/==/BPLBhopal Junction (6)X  16:45+2116:50+235m22972.8100497mWCRBhopal, Madhya Pradesh
32/==/BHSVidisha (3)X  17:23 17:22+2817:24+281 2m121026.381433mWCRVidisha, Madhya Pradesh
33/==/BAQGanj Basoda (4)XO  17:54 17:53+3217:55+321 2m121065.678415mWCRVidisha, Madhya Pradesh
34/==/MABAMandi Bamora (3)X  18:18 18:17+2918:19+291 2m121094.125413mWCRState Highway 14, Madhya Pradesh
35/==/BINABina Junction (5)X  19:00+1319:05+135m321111.373414mWCRJn Pt - KATNI/GUNA/ BPL/JHS, Madhya Pradesh
36/==/LARLalitpur (3)X  19:58 19:57+2419:59+241 2m321174.290373mNCRLalitpur, Uttar Pradesh
37/==/BABBabina (3)X  20:43 20:42+3420:44+341 2m221239.142285mNCRBabina, Uttar Pradesh
38/==/JHSJhansi Junction (7)X  21:18 21:20+3421:28 21:30+3610m421264.675259mNCRJhansi, Uttar Pradesh
39/==/DAADatia (2)XO  21:51 21:50+4321:52+431 2m--21289.679264mNCRDatia, Madhya Pradesh
40/==/GWLGwalior Junction (4)  22:47+5022:52+495m221362.393214mNCRGwalior, Madhya Pradesh
41/==/MRAMorena (3)  23:18 23:17+5823:19+581 2m221400.855176mNCRMorena, Madhya Pradesh
42/==/AGCAgra Cantt. (6)X  00:45+5800:50+1:005m231480.375174mNCRAgra, Uttar Pradesh
43/==/MTJMathura Junction (10)X  01:33+1:1001:38+1:115m231534.063179mNCRMathura, Uttar Pradesh
44/==/BVHBallabgarh (5)  03:19 03:18+4703:20+471 2m331639.144203mNRFaridabad, Haryana
45/==/FDBFaridabad (4)  03:30 03:31+4503:33+453 2m231647.139206mNRold Faridabad, Haryana
46/==/NZMDelhi Hazrat Nizamuddin (7)  04:00 04:05+40-631667.9-209mNRNew Delhi 110013, Delhi NCT
Scroll to Top
Scroll to Bottom


Go to Mobile site